Tracking 18980 objects as of 21-Feb-2018
HD Live streaming from Space Station
objects crossing your sky now

COSMOS 773

Track COSMOS 773 now!
10-day predictions
COSMOS 773 is classified as:


NORAD ID: 8343
Int'l Code: 1975-094A
Perigee: 774.4 km
Apogee: 790.4 km
Inclination: 74.1 °
Period: 100.4 minutes
Semi major axis: 7153 km
RCS: 3.1365 m2 (large)
Launch date: September 30, 1975
Source: Commonwealth of Independent States (former USSR) (CIS)
Launch site: PLESETSK MISSILE AND SPACE COMPLEX (PKMTR)
aabbcc
Your satellite tracking list
Your tracking list is empty




NASA's NSSDC Master Catalog

Two Line Element Set (TLE):
1 08343U 75094A   18051.23838329  .00000026  00000-0  18304-4 0  9994
2 08343  74.0564 161.3393 0011184   6.8938 353.2366 14.34928935216703
Source of the keplerian elements: AFSPC